Springfield, IL

5:41 AM CST on December 13, 2019 (GMT -0600)
Capital

Weather History for KSPI - October, 2019

Change the Weather History Date:

Monday, October 28, 2019

  Actual Average Record
Temperature  
Mean Temperature 45 °F 51 °F  
Max Temperature 52 °F 62 °F 84 °F (1927)
Min Temperature 37 °F 41 °F 20 °F (1925)
Degree Days  
Heating Degree Days 20 14  
Month to date heating degree days 298 284  
Since 1 July heating degree days 299 365  
Cooling Degree Days 0 0  
Month to date cooling degree days 32 19  
Year to date cooling degree days 1309 1118  
Moisture  
Dew Point 42 °F    
Average Humidity 80    
Maximum Humidity 92    
Minimum Humidity 68    
Precipitation  
Precipitation 0.00 in 0.10 in 1.10 in (1882)
Month to date precipitation 3.04 2.84  
Year to date precipitation 43.59 31.39  
Snow  
Snow 0.00 in 0.00 in T in (2017)
Month to date snowfall 0.0 0.0  
Since 1 July snowfall 0.0 0.0  
Since 1 September snowfall 0.0 0.0  
Snow Depth 0.00 in    
Sea Level Pressure  
Sea Level Pressure 30.05 in    
Wind  
Wind Speed 4 mph (NNE)    
Max Wind Speed 13 mph    
Max Gust Speed 20 mph    
Visibility 9 miles    
Events      
T = Trace of Precipitation, MM = Missing Value Source: NWS Daily Summary

Daily Weather History Graph

Daily Weather History Graph

Search for Another Location

Airport or City:

Astronomy

Oct. 28, 2019 Rise Set
Actual Time 7:22 AM CDT 6:01 PM CDT
Civil Twilight 6:54 AM CDT 6:29 PM CDT
Nautical Twilight 6:23 AM CDT 7:01 PM CDT
Astronomical Twilight 5:51 AM CDT 7:32 PM CDT
Moon 7:44 AM CDT (10/28) 6:46 PM CDT (10/28)
Length of Visible Light 11h 34m
Length of Day
10h 38m
New Moon, 0% of the Moon is Illuminated
Oct 28
New Moon
Nov 4
First Quarter
Nov 12
Full
Nov 19
Last Quarter
Nov 26
New

Hourly Weather History & Observations

Time (CDT) Temp. Windchill Dew Point Humidity Pressure Visibility Wind Dir Wind Speed Gust Speed Precip Events Conditions
12:52 AM 52.0 °F - 46.9 °F 83% 30.00 in 10.0 mi South 8.1 mph - N/A   Partly Cloudy
1:52 AM 48.0 °F - 45.0 °F 89% 30.03 in 10.0 mi Calm Calm - N/A   Scattered Clouds
2:52 AM 46.0 °F 42.5 °F 42.1 °F 86% 30.04 in 10.0 mi North 6.9 mph - N/A   Clear
3:52 AM 44.1 °F 41.5 °F 39.9 °F 85% 30.04 in 10.0 mi North 4.6 mph - N/A   Clear
4:52 AM 39.0 °F - 36.0 °F 89% 30.04 in 7.0 mi Calm Calm - N/A   Clear
5:52 AM 39.0 °F - 37.0 °F 93% 30.05 in 7.0 mi Calm Calm - N/A   Clear
6:52 AM 37.0 °F 34.5 °F 36.0 °F 96% 30.07 in 4.0 mi WNW 3.5 mph - N/A   Clear
7:09 AM 39.9 °F - 37.9 °F 93% 30.06 in 6.0 mi Calm Calm - N/A   Mostly Cloudy
7:52 AM 42.1 °F 39.2 °F 39.0 °F 89% 30.08 in 9.0 mi NW 4.6 mph - N/A   Overcast
8:52 AM 44.1 °F 40.8 °F 39.9 °F 85% 30.09 in 10.0 mi North 5.8 mph - N/A   Overcast
10:27 AM 46.0 °F - 41.0 °F 83% 30.09 in 9.0 mi Calm Calm - N/A   Overcast
10:52 AM 46.9 °F - 41.0 °F 80% 30.10 in 10.0 mi Calm Calm - N/A   Overcast
11:08 AM 48.0 °F - 41.0 °F 77% 30.09 in 9.0 mi NW 6.9 mph - N/A   Overcast
11:30 AM 48.9 °F - 42.1 °F 77% 30.09 in 10.0 mi NNW 5.8 mph - N/A   Overcast
11:52 AM 48.9 °F - 42.1 °F 77% 30.09 in 10.0 mi North 4.6 mph - N/A   Overcast
12:52 PM 50.0 °F - 42.1 °F 74% 30.07 in 10.0 mi North 5.8 mph - N/A   Overcast
12:56 PM 50.0 °F - 42.1 °F 74% 30.06 in 10.0 mi NNE 6.9 mph - N/A   Overcast
1:52 PM 51.1 °F - 42.1 °F 71% 30.05 in 10.0 mi Calm Calm - N/A   Overcast
2:08 PM 51.1 °F - 42.1 °F 71% 30.05 in 10.0 mi NNE 3.5 mph - N/A   Overcast
2:16 PM 51.1 °F - 42.1 °F 71% 30.05 in 10.0 mi NNE 3.5 mph - N/A   Overcast
2:33 PM 51.1 °F - 41.0 °F 68% 30.05 in 10.0 mi North 5.8 mph - N/A   Overcast
2:52 PM 51.1 °F - 41.0 °F 68% 30.06 in 10.0 mi Calm Calm - N/A   Overcast
3:52 PM 51.1 °F - 42.1 °F 71% 30.06 in 8.0 mi NNW 4.6 mph - N/A   Overcast
4:52 PM 48.9 °F - 42.1 °F 77% 30.07 in 7.0 mi North 4.6 mph - N/A   Overcast
5:52 PM 48.0 °F - 42.1 °F 80% 30.07 in 8.0 mi Calm Calm - N/A   Overcast
6:26 PM 48.0 °F - 42.1 °F 80% 30.04 in 10.0 mi ENE 8.1 mph - N/A   Overcast
6:52 PM 48.0 °F - 42.1 °F 80% 30.04 in 10.0 mi East 8.1 mph - N/A   Overcast
7:52 PM 48.0 °F - 42.1 °F 80% 30.03 in 10.0 mi NNE 4.6 mph - N/A   Overcast
8:52 PM 48.0 °F - 43.0 °F 83% 30.02 in 10.0 mi East 3.5 mph - N/A   Overcast
9:52 PM 48.0 °F - 44.1 °F 86% 30.01 in 8.0 mi ESE 5.8 mph - N/A   Overcast
10:38 PM 48.9 °F - 45.0 °F 86% 29.98 in 7.0 mi SE 5.8 mph - N/A   Mostly Cloudy
10:52 PM 48.9 °F - 45.0 °F 86% 29.99 in 7.0 mi SE 9.2 mph - N/A   Overcast
11:16 PM 48.9 °F - 46.0 °F 90% 29.96 in 6.0 mi SE 6.9 mph - N/A   Scattered Clouds
11:52 PM 51.1 °F - 48.0 °F 89% 29.99 in 7.0 mi SW 3.5 mph - N/A   Partly Cloudy